Location: Indian Hills
(32.9760°N, 85.9450°W)
Time: 13:56:27
(UTC+00:00)

COSMO-SKYMED 1 - Pass Details

Date: 09 December 2019
Orbit: 621 x 623 km, 97.9° (Epoch: 23 January)

Event Time Altitude Azimuth Distance (km) Brightness Sun altitude
Rises 11:49:28 0° 195° (SSW) 2,887 6.1 -9.5°
Reaches altitude 10° 11:51:59 10° 209° (SSW) 1,985 5.1 -9.0°
Maximum altitude 11:55:30 24° 264° (W) 1,289 3.7 -8.4°
Drops below altitude 10° 11:59:03 10° 318° (NW) 1,996 4.6 -7.7°
Enters shadow 12:00:40 - 329° (NNW) 2,566 5.2 -7.4°
